[[{"header":{"parameterUnit":"m.s-1","parameterCategory":1,"la1":30.2991,"la2":30.254,"lo1":-89.0895,"lo2":-89.0444,"dy":0.0017,"dx":0.0017,"nx":28,"ny":28,"refTime":"2025-03-22T21:00:00:Z","depth":0,"parameterNumber":2,"parameterNumberName":"U-component_of_WINDS"},"data":[0,0,0,0,0,0,0,0,0,0,0,0,0,0,0,0,0,0,0,0,0,0,0,0,0,0,0,0,0,0,0,0,0,0,0,0,0,0,0,0,0,0,0,0,0,0,0,0,0,0,0,0,0,0,0,0,0,0,-2.0898,-2.0898,0,-2.0927,-2.0928,-2.0928,-2.0935,-2.0934,-2.0934,-2.0934,-2.0964,-2.0965,-2.0966,0,0,0,0,0,0,0,0,0,0,0,0,0,-2.0847,-2.0848,-2.0898,-2.0898,-2.0899,-2.0927,-2.0928,-2.0928,-2.0935,-2.0934,-2.0934,-2.0934,-2.0964,-2.0965,-2.0966,0,0,0,0,0,0,0,0,0,0,0,0,0,-2.0872,-2.0848,-2.0898,-2.0905,-2.0906,-2.0927,-2.0928,-2.0928,-2.0935,-2.0934,-2.0934,-2.0934,-2.0963,-2.0965,-2.0966,-2.0982,0,0,-2.0971,-2.0972,0,0,0,0,0,0,0,0,-2.0871,-2.0874,-2.0904,-2.0905,-2.0906,-2.0927,-2.0921,-2.0946,-2.0935,-2.0924,-2.0934,-2.0934,-2.0952,-2.0955,-2.0961,-2.0983,-2.0985,-2.0971,-2.0972,-2.0973,-2.0973,0,0,0,0,0,0,0,-2.0869,-2.0873,-2.091,-2.0904,-2.0906,-2.0907,-2.091,-2.0926,-2.0939,-2.0925,-2.0925,-2.0929,-2.0953,-2.0959,-2.0962,-2.0985,-2.0971,-2.0972,-2.0973,-2.0974,-2.1022,-2.1023,0,0,0,0,0,0,-2.0866,-2.0871,-2.0909,-2.091,-2.0887,-2.0908,-2.0912,-2.0921,-2.0939,-2.0942,-2.0929,-2.0929,-2.0957,-2.096,-2.0963,-2.0982,-2.0973,-2.0974,-2.0975,-2.1022,-2.1022,-2.1023,0,0,0,0,0,0,-2.0865,-2.0869,-2.0907,-2.0891,-2.0896,-2.091,-2.0919,-2.0921,-2.0928,-2.0942,-2.0945,-2.0933,-2.0957,-2.096,-2.0977,-2.0983,-2.0975,-2.0976,-2.1021,-2.1022,-2.1022,-2.1021,0,0,0,0,0,0,-2.0863,-2.0869,-2.0875,-2.0891,-2.0897,-2.0921,-2.092,-2.0922,-2.0931,-2.0931,-2.0947,-2.095,-2.0957,-2.0975,-2.0979,-2.0985,-2.0977,-2.1021,-2.1022,-2.1022,-2.102,-2.1021,-2.1022,0,0,0,0,0,-2.0861,-2.0873,-2.0875,-2.0879,-2.0905,-2.0922,-2.0925,-2.0933,-2.0931,-2.0937,-2.0947,-2.0949,-2.0982,-2.0977,-2.0981,-2.0988,-2.1021,-2.1021,-2.1022,-2.102,-2.1021,-2.1022,0,0,0,0,0,0,-2.0857,-2.0875,-2.0878,-2.0895,-2.0907,-2.0923,-2.0931,-2.0934,-2.0947,-2.0946,-2.0956,-2.096,-2.0976,-2.0983,-2.0977,-2.1004,-2.1001,-2.1003,-2.0998,-2.0999,-2.1,-2.0997,-2.0979,0,0,0,0,0,-2.0858,-2.087,-2.0886,-2.0899,-2.0905,-2.0917,-2.0925,-2.093,-2.0943,-2.0948,-2.0958,-2.097,-2.0983,-2.0992,-2.1005,-2.1022,-2.1025,-2.1029,-2.1029,-2.103,-2.1031,-2.1041,-2.1042,-2.1025,-2.1025,-2.1025,0,0,-2.086,-2.0872,-2.0879,-2.0899,-2.0908,-2.0921,-2.0921,-2.0934,-2.0944,-2.095,-2.0966,-2.0974,-2.0988,-2.1005,-2.1013,-2.1012,-2.1037,-2.1031,-2.1031,-2.1032,-2.1042,-2.1043,-2.1045,-2.1026,-2.1026,-2.1026,0,0,-2.087,-2.088,-2.0893,-2.0902,-2.0917,-2.0925,-2.0928,-2.0944,-2.095,-2.0966,-2.0971,-2.0982,-2.1005,-2.1015,-2.1023,-2.1037,-2.104,-2.1041,-2.1045,-2.1054,-2.1055,-2.1056,-2.1061,-2.1063,-2.1042,-2.1042,-2.1042,0,-2.0871,-2.089,-2.0899,-2.0912,-2.092,-2.0926,-2.0939,-2.0948,-2.0966,-2.0972,-2.0971,-2.0999,-2.1009,-2.1029,-2.1032,-2.1039,-2.1042,-2.1039,-2.1054,-2.1056,-2.1057,-2.1062,-2.1063,-2.1042,-2.1042,-2.1042,-2.1042,0,-2.089,-2.0903,-2.0911,-2.0928,-2.0938,-2.0951,-2.0962,-2.097,-2.0975,-2.0983,-2.1,-2.1012,-2.1028,-2.1033,-2.1038,-2.1053,-2.1052,-2.1053,-2.105,-2.1058,-2.1063,-2.1065,-2.1042,-2.1042,-2.1042,-2.1042,0,0,-2.0897,-2.092,-2.0922,-2.093,-2.0947,-2.0958,-2.0971,-2.0986,-2.0993,-2.1006,-2.1017,-2.1036,-2.1037,-2.1046,-2.1052,-2.106,-2.107,-2.106,-2.106,-2.1061,-2.1088,-2.1087,-2.1089,-2.1072,-2.1073,-2.1073,-2.1086,0,-2.0909,-2.0932,-2.0941,-2.096,-2.0972,-2.0979,-2.099,-2.1002,-2.101,-2.1021,-2.103,-2.1043,-2.1044,-2.1049,-2.1058,-2.1067,-2.1076,-2.1066,-2.1083,-2.1083,-2.1078,-2.1091,-2.109,-2.1102,-2.1088,-2.1088,-2.1089,0,-2.0926,-2.0938,-2.0959,-2.0974,-2.098,-2.099,-2.1004,-2.1015,-2.1029,-2.1034,-2.1045,-2.105,-2.1064,-2.1061,-2.1081,-2.1074,-2.1082,-2.1088,-2.1088,-2.109,-2.1086,-2.1092,-2.1106,-2.1107,-2.1092,-2.1091,-2.1091,0,-2.0929,-2.0951,-2.0966,-2.0973,-2.0991,-2.0998,-2.1006,-2.1019,-2.1028,-2.1041,-2.1047,-2.1061,-2.1069,-2.108,-2.1089,-2.1087,-2.1108,-2.1106,-2.1113,-2.1112,-2.1116,-2.1116,-2.113,-2.1122,-2.1122,-2.1122,-2.1122,0,-2.0941,-2.0953,-2.0967,-2.0977,-2.099,-2.1,-2.1014,-2.1022,-2.1034,-2.1045,-2.1052,-2.1062,-2.1074,-2.1086,-2.1093,-2.1108,-2.1112,-2.1116,-2.1118,-2.1116,-2.1115,-2.112,-2.1119,-2.1122,-2.1122,-2.1122,-2.1122,0,-2.0946,-2.0956,-2.0973,-2.0989,-2.0994,-2.1003,-2.1017,-2.1026,-2.1035,-2.1049,-2.1052,-2.1066,-2.108,-2.1091,-2.1109,-2.1114,-2.113,-2.1132,-2.1125,-2.1126,-2.1132,-2.1131,-2.115,-2.1153,-2.1143,-2.1143,-2.1143,0,-2.0953,-2.0962,-2.0979,-2.0987,-2.0995,-2.1008,-2.1016,-2.1027,-2.1035,-2.1052,-2.1059,-2.1074,-2.1086,-2.1109,-2.112,-2.1135,-2.1137,-2.1142,-2.1139,-2.1136,-2.1136,-2.1135,-2.1136,-2.1143,-2.1143,-2.1143,-2.1143,0,-2.0963,-2.0968,-2.098,-2.0994,-2.1005,-2.1016,-2.1028,-2.1034,-2.1047,-2.1056,-2.1071,-2.108,-2.11,-2.1114,-2.113,-2.1138,-2.1143,-2.1144,-2.1146,-2.1143,-2.1139,-2.1141,-2.1126,-2.1143,-2.1143,-2.1143,-2.1143,-2.1143,-2.0969,-2.0978,-2.0991,-2.1005,-2.1015,-2.1026,-2.1035,-2.1045,-2.1057,-2.1073,-2.1078,-2.1094,-2.1107,-2.1128,-2.1137,-2.1149,-2.1149,-2.1153,-2.1153,-2.1154,-2.1153,-2.1137,-2.1152,-2.1152,-2.1152,-2.1152,-2.1152,0,-2.098,-2.0989,-2.1001,-2.1017,-2.1028,-2.1031,-2.1045,-2.1053,-2.1066,-2.1079,-2.1091,-2.1108,-2.1122,-2.1135,-2.1149,-2.1157,-2.1159,-2.116,-2.1159,-2.1161,-2.1153,-2.1149,-2.1158,-2.1158,-2.1158,-2.1158,-2.1158,-2.1158,-2.0987,-2.1001,-2.1007,-2.1027,-2.1036,-2.1051,-2.1058,-2.1068,-2.1078,-2.1096,-2.1108,-2.1116,-2.1129,-2.1145,-2.1158,-2.1162,-2.1167,-2.1167,-2.1171,-2.1163,-2.1162,-2.1161,-2.1158,-2.1168,-2.1168,-2.1179,-2.1179,-2.1179]},{"header":{"parameterUnit":"m.s-1","parameterCategory":1,"la1":30.2991,"la2":30.254,"lo1":-89.0895,"lo2":-89.0444,"dy":0.0017,"dx":0.0017,"nx":28,"ny":28,"refTime":"2025-03-22T21:00:00:Z","depth":0,"parameterNumber":3,"parameterNumberName":"V-component_of_WINDS"},"data":[0,0,0,0,0,0,0,0,0,0,0,0,0,0,0,0,0,0,0,0,0,0,0,0,0,0,0,0,0,0,0,0,0,0,0,0,0,0,0,0,0,0,0,0,0,0,0,0,0,0,0,0,0,0,0,0,0,0,5.4014,5.4015,0,5.4072,5.4072,5.4073,5.4052,5.4051,5.405,5.4048,5.4105,5.4108,5.411,0,0,0,0,0,0,0,0,0,0,0,0,0,5.3885,5.3888,5.4014,5.4015,5.4015,5.4072,5.4072,5.4073,5.4052,5.4051,5.4049,5.4048,5.4104,5.4107,5.4111,0,0,0,0,0,0,0,0,0,0,0,0,0,5.3942,5.3888,5.4014,5.4012,5.4012,5.4071,5.4072,5.4073,5.4053,5.4051,5.4049,5.4047,5.4103,5.4107,5.4111,5.4175,0,0,5.4124,5.4125,0,0,0,0,0,0,0,0,5.3939,5.3946,5.4011,5.4012,5.4013,5.4053,5.4048,5.4107,5.4053,5.4037,5.4048,5.4046,5.4089,5.4094,5.4109,5.4177,5.418,5.4124,5.4126,5.4128,5.4129,0,0,0,0,0,0,0,5.3935,5.3944,5.4037,5.4012,5.4013,5.4008,5.4014,5.4059,5.4073,5.4039,5.4037,5.4044,5.4089,5.4105,5.411,5.4181,5.4124,5.4127,5.413,5.4131,5.4307,5.4309,0,0,0,0,0,0,5.3931,5.3941,5.4035,5.4038,5.397,5.4012,5.4018,5.4042,5.4073,5.4076,5.4046,5.4043,5.4099,5.4106,5.4112,5.4191,5.4128,5.4132,5.4134,5.4305,5.4308,5.431,0,0,0,0,0,0,5.3928,5.3939,5.4032,5.3989,5.4001,5.4016,5.4043,5.4044,5.406,5.4078,5.4081,5.406,5.4098,5.4107,5.416,5.4193,5.4134,5.4137,5.4302,5.4306,5.4309,5.4347,0,0,0,0,0,0,5.3924,5.3938,5.3963,5.399,5.4003,5.408,5.4045,5.4047,5.4068,5.4065,5.4092,5.4095,5.4097,5.4154,5.4164,5.4197,5.4141,5.4299,5.4304,5.4308,5.4343,5.4352,5.4359,0,0,0,0,0,5.392,5.397,5.3964,5.3975,5.4034,5.4082,5.4089,5.4091,5.407,5.4095,5.4107,5.4094,5.4187,5.416,5.4171,5.4205,5.4297,5.4303,5.4307,5.434,5.435,5.4359,0,0,0,0,0,0,5.3944,5.3973,5.3967,5.4028,5.4053,5.4078,5.4109,5.4102,5.4132,5.4128,5.4129,5.4135,5.4191,5.4203,5.4172,5.427,5.4239,5.4247,5.426,5.427,5.4278,5.4274,5.4144,0,0,0,0,0,5.3957,5.3994,5.4017,5.4068,5.4082,5.4093,5.4114,5.4114,5.4139,5.4149,5.4165,5.419,5.4225,5.4248,5.4281,5.4345,5.4352,5.4374,5.4382,5.4388,5.4395,5.4432,5.4443,5.4326,5.4326,5.4326,0,0,5.3983,5.4004,5.4027,5.4074,5.4093,5.4132,5.4102,5.4143,5.4172,5.4155,5.4208,5.4221,5.4248,5.4308,5.4335,5.432,5.4429,5.4395,5.44,5.4403,5.4439,5.445,5.4459,5.433,5.4329,5.4329,0,0,5.4051,5.407,5.4116,5.4137,5.4167,5.4175,5.4186,5.4213,5.4222,5.4275,5.4264,5.4298,5.4357,5.4379,5.4397,5.4476,5.4466,5.4487,5.4527,5.4563,5.4573,5.4581,5.4611,5.4621,5.4493,5.4493,5.4493,0,5.408,5.4138,5.414,5.4184,5.4205,5.4194,5.4241,5.4261,5.43,5.4315,5.4298,5.4375,5.4392,5.4458,5.4478,5.4493,5.4506,5.4484,5.4571,5.458,5.4587,5.4616,5.4627,5.4496,5.4495,5.4495,5.4495,0,5.4172,5.4213,5.4246,5.4287,5.4312,5.4357,5.4367,5.4392,5.439,5.44,5.4456,5.4477,5.4515,5.4531,5.4528,5.4597,5.4587,5.4571,5.454,5.4601,5.4628,5.4639,5.4499,5.4498,5.4498,5.4497,0,0,5.4256,5.4299,5.4312,5.4331,5.4365,5.4396,5.4441,5.448,5.4502,5.453,5.4569,5.4621,5.4607,5.4628,5.4628,5.466,5.4724,5.464,5.4641,5.4656,5.4803,5.4816,5.4829,5.4717,5.4719,5.4721,5.4801,0,5.4328,5.4408,5.4413,5.4485,5.4524,5.4515,5.4554,5.4579,5.459,5.4624,5.4636,5.4674,5.4652,5.4665,5.4696,5.4709,5.4754,5.4704,5.4754,5.4755,5.4748,5.4843,5.4856,5.4931,5.4812,5.4813,5.4815,0,5.4422,5.4455,5.4532,5.4563,5.4579,5.4615,5.4652,5.4685,5.4713,5.4719,5.4745,5.4741,5.4788,5.4755,5.4821,5.4787,5.4808,5.4818,5.4821,5.4826,5.4789,5.4852,5.4954,5.4966,5.4831,5.483,5.4829,0,5.4478,5.4542,5.4597,5.4613,5.465,5.4675,5.4691,5.4718,5.4742,5.4775,5.4791,5.4828,5.4848,5.4878,5.4885,5.486,5.4951,5.4918,5.4958,5.4958,5.4978,5.4976,5.5086,5.4989,5.4989,5.4989,5.4989,0,5.4559,5.4607,5.4623,5.4656,5.471,5.4716,5.4769,5.4783,5.4808,5.4845,5.4838,5.4873,5.488,5.4916,5.4922,5.4976,5.4985,5.4992,5.4993,5.4993,5.4993,5.5007,5.5003,5.4992,5.4991,5.499,5.499,0,5.463,5.4643,5.4703,5.4733,5.4742,5.4781,5.4807,5.484,5.4851,5.4898,5.4909,5.4926,5.4969,5.4979,5.5029,5.5033,5.5098,5.5094,5.5089,5.5089,5.5129,5.5126,5.5253,5.5271,5.5161,5.5162,5.5163,0,5.4681,5.4718,5.4754,5.4779,5.4797,5.4837,5.4862,5.4869,5.4896,5.4933,5.4962,5.5004,5.5038,5.5107,5.5124,5.5163,5.516,5.5202,5.5166,5.5166,5.5163,5.5161,5.5166,5.5209,5.521,5.5211,5.5212,0,5.4772,5.4777,5.4814,5.4854,5.4884,5.4916,5.4946,5.4966,5.4978,5.5008,5.5052,5.5079,5.5132,5.5174,5.5214,5.5231,5.5224,5.5224,5.5235,5.5236,5.5233,5.5237,5.511,5.5221,5.522,5.5219,5.5219,5.5218,5.4836,5.4869,5.49,5.4942,5.4966,5.4995,5.5028,5.5044,5.5082,5.5126,5.5128,5.5177,5.5207,5.526,5.5279,5.5318,5.5305,5.5321,5.5325,5.533,5.5334,5.5226,5.5325,5.5324,5.5324,5.5324,5.5324,0,5.4927,5.4947,5.4986,5.5029,5.5063,5.5054,5.5088,5.5116,5.516,5.5189,5.5223,5.5276,5.5317,5.5339,5.538,5.5407,5.5406,5.5418,5.5417,5.5421,5.5342,5.5329,5.5419,5.5419,5.5419,5.5419,5.5419,5.5419,5.4979,5.5036,5.5045,5.5114,5.5134,5.5182,5.5203,5.523,5.5253,5.5312,5.5347,5.5361,5.5388,5.5432,5.547,5.5475,5.5492,5.5506,5.551,5.5436,5.5426,5.5417,5.5405,5.551,5.551,5.5586,5.5587,5.5587]}]]